Location: ?????
(55.6500°N, 37.2500°E)
Time: 01:27:00
(UTC+00:00)

Cosmos 2292 Rocket - Pass Details

Date: 19 May 2025
Orbit: 368 x 1267 km, 83.0° (Epoch: 13 June)

Event Time Altitude Azimuth Distance (km) Brightness Sun altitude
Exits shadow 23:03:45 11° 173° (S) 2,460 6.1 -11.7°
Maximum altitude 23:09:05 56° 97° (E) 859 4.4 -11.4°
Drops below altitude 10° 23:13:22 10° 19° (NNE) 1,971 7.7 -11.1°
Sets 23:15:20 0° 15° (NNE) 2,760 8.8 -11.0°
